Time,TemperatureF,DewpointF,PressureIn,WindDirection,WindDirectionDegrees,WindSpeedMPH,WindSpeedGustMPH,Humidity,HourlyPrecipIn,Conditions,Clouds,dailyrainin,SoftwareType,DateUTC
2013-02-21 00:01:00,44.1,37.3,29.50,SSW,202,4.0,4.0,77,0.00,,CLR,0.00,VWS V14.01,2013-02-21 08:01:00,
2013-02-21 00:06:00,44.1,37.3,29.50,SSW,202,4.0,4.0,77,0.00,,CLR,0.00,VWS V14.01,2013-02-21 08:06:00,
2013-02-21 00:11:00,43.7,37.0,29.50,SSW,202,4.0,4.0,77,0.00,,CLR,0.00,VWS V14.01,2013-02-21 08:11:00,
2013-02-21 00:16:00,43.5,36.5,29.53,SSW,202,4.0,4.0,76,0.00,,CLR,0.00,VWS V14.01,2013-02-21 08:16:00,
2013-02-21 00:21:00,43.3,36.6,29.53,SSW,202,4.0,4.0,77,0.00,,CLR,0.00,VWS V14.01,2013-02-21 08:21:00,
2013-02-21 00:26:00,43.2,36.5,29.53,SSW,202,4.0,4.0,77,0.00,,CLR,0.00,VWS V14.01,2013-02-21 08:26:00,
2013-02-21 00:31:00,43.0,36.3,29.50,SSW,202,4.0,4.0,77,0.00,,CLR,0.00,VWS V14.01,2013-02-21 08:31:00,
2013-02-21 00:36:00,42.8,36.1,29.50,SSW,202,4.0,4.0,77,0.00,,CLR,0.00,VWS V14.01,2013-02-21 08:36:00,
2013-02-21 00:41:00,42.8,36.1,29.50,SSW,202,4.0,4.0,77,0.00,,CLR,0.00,VWS V14.01,2013-02-21 08:41:00,
2013-02-21 00:46:00,42.6,36.2,29.50,SSW,202,4.0,4.0,78,0.00,,CLR,0.00,VWS V14.01,2013-02-21 08:46:00,
2013-02-21 00:51:00,42.4,36.1,29.50,SSW,202,4.0,4.0,78,0.00,,CLR,0.00,VWS V14.01,2013-02-21 08:51:00,
2013-02-21 00:56:00,42.4,36.4,29.50,SSW,202,4.0,4.0,79,0.00,,CLR,0.00,VWS V14.01,2013-02-21 08:56:00,
2013-02-21 01:01:00,42.4,36.4,29.50,SSW,202,4.0,4.0,79,0.00,,CLR,0.00,VWS V14.01,2013-02-21 09:01:00,
2013-02-21 01:06:00,42.4,36.4,29.50,SSW,202,4.0,4.0,79,0.00,,CLR,0.00,VWS V14.01,2013-02-21 09:06:00,
2013-02-21 01:11:00,42.4,36.4,29.50,SSW,202,4.0,4.0,79,0.00,,CLR,0.00,VWS V14.01,2013-02-21 09:11:00,
2013-02-21 01:16:00,42.4,36.7,29.47,SSW,202,4.0,4.0,80,0.00,,CLR,0.00,VWS V14.01,2013-02-21 09:16:00,
2013-02-21 01:21:00,42.3,36.2,29.47,SSW,202,4.0,4.0,79,0.00,,CLR,0.00,VWS V14.01,2013-02-21 09:21:00,
2013-02-21 01:26:00,42.3,36.5,29.47,SSW,202,4.0,4.0,80,0.00,,CLR,0.00,VWS V14.01,2013-02-21 09:26:00,
2013-02-21 01:31:00,42.1,36.4,29.50,SSW,202,4.0,4.0,80,0.00,,CLR,0.00,VWS V14.01,2013-02-21 09:31:00,
2013-02-21 01:36:00,42.3,36.9,29.50,SSW,202,4.0,4.0,81,0.00,,CLR,0.00,VWS V14.01,2013-02-21 09:36:00,
2013-02-21 01:41:00,42.4,37.3,29.50,SSW,202,4.0,4.0,82,0.00,,CLR,0.00,VWS V14.01,2013-02-21 09:41:00,
2013-02-21 01:46:00,42.4,37.3,29.50,SSW,202,4.0,4.0,82,0.00,,CLR,0.00,VWS V14.01,2013-02-21 09:46:00,
2013-02-21 01:51:00,42.4,37.0,29.50,SSW,202,4.0,4.0,81,0.00,,CLR,0.00,VWS V14.01,2013-02-21 09:51:00,
2013-02-21 01:56:00,42.1,36.7,29.50,SSW,202,4.0,4.0,81,0.00,,CLR,0.00,VWS V14.01,2013-02-21 09:56:00,
2013-02-21 02:01:00,42.1,36.7,29.50,SSW,202,4.0,4.0,81,0.00,,CLR,0.00,VWS V14.01,2013-02-21 10:01:00,
2013-02-21 02:06:00,41.9,36.5,29.50,SSW,202,4.0,4.0,81,0.00,,CLR,0.00,VWS V14.01,2013-02-21 10:06:00,
2013-02-21 02:11:00,41.9,36.5,29.50,SSW,202,4.0,4.0,81,0.00,,CLR,0.00,VWS V14.01,2013-02-21 10:11:00,
2013-02-21 02:16:00,41.9,36.5,29.47,SSW,202,4.0,4.0,81,0.00,,CLR,0.00,VWS V14.01,2013-02-21 10:16:00,
2013-02-21 02:21:00,41.9,36.5,29.47,SSW,202,4.0,4.0,81,0.00,,CLR,0.00,VWS V14.01,2013-02-21 10:21:00,
2013-02-21 02:26:00,42.1,36.7,29.47,SSW,202,4.0,4.0,81,0.00,,CLR,0.00,VWS V14.01,2013-02-21 10:26:00,
2013-02-21 02:31:00,42.6,37.5,29.50,SSW,202,4.0,4.0,82,0.00,,CLR,0.00,VWS V14.01,2013-02-21 10:31:00,
2013-02-21 02:36:00,42.8,37.7,29.50,SSW,202,4.0,4.0,82,0.00,,CLR,0.00,VWS V14.01,2013-02-21 10:36:00,
2013-02-21 02:41:00,43.0,37.9,29.50,SSW,202,4.0,4.0,82,0.00,,CLR,0.00,VWS V14.01,2013-02-21 10:41:00,
2013-02-21 02:46:00,43.2,38.0,29.50,SSW,202,4.0,4.0,82,0.00,,CLR,0.00,VWS V14.01,2013-02-21 10:46:00,
2013-02-21 02:51:00,43.0,37.6,29.50,SSW,202,4.0,4.0,81,0.00,,CLR,0.00,VWS V14.01,2013-02-21 10:51:00,
2013-02-21 02:56:00,42.8,37.4,29.50,SSW,202,4.0,4.0,81,0.00,,CLR,0.00,VWS V14.01,2013-02-21 10:56:00,
2013-02-21 03:02:00,42.8,37.1,29.50,SSW,202,4.0,4.0,80,0.00,,CLR,0.00,VWS V14.01,2013-02-21 11:02:00,
2013-02-21 03:07:00,42.6,37.2,29.50,SSW,202,4.0,4.0,81,0.00,,CLR,0.00,VWS V14.01,2013-02-21 11:07:00,
2013-02-21 03:12:00,42.6,37.2,29.50,SSW,202,4.0,4.0,81,0.00,,CLR,0.00,VWS V14.01,2013-02-21 11:12:00,
2013-02-21 03:17:00,42.8,37.4,29.50,SSW,202,4.0,4.0,81,0.00,,CLR,0.00,VWS V14.01,2013-02-21 11:17:00,
2013-02-21 03:22:00,43.3,37.9,29.50,SSW,202,4.0,4.0,81,0.00,,CLR,0.00,VWS V14.01,2013-02-21 11:22:00,
2013-02-21 03:27:00,43.5,38.4,29.50,SSW,202,4.0,4.0,82,0.00,,CLR,0.00,VWS V14.01,2013-02-21 11:27:00,
2013-02-21 03:32:00,43.7,38.3,29.50,SSW,202,4.0,4.0,81,0.00,,CLR,0.00,VWS V14.01,2013-02-21 11:32:00,
2013-02-21 03:37:00,43.9,38.4,29.50,SSW,202,4.0,4.0,81,0.00,,CLR,0.00,VWS V14.01,2013-02-21 11:37:00,
2013-02-21 03:42:00,44.1,38.6,29.50,SSW,202,4.0,4.0,81,0.00,,CLR,0.00,VWS V14.01,2013-02-21 11:42:00,
2013-02-21 03:47:00,44.2,38.8,29.50,SSW,202,4.0,4.0,81,0.00,,CLR,0.00,VWS V14.01,2013-02-21 11:47:00,
2013-02-21 03:52:00,44.4,39.0,29.50,SSW,202,4.0,4.0,81,0.00,,CLR,0.00,VWS V14.01,2013-02-21 11:52:00,
2013-02-21 03:57:00,44.6,38.8,29.50,SSW,202,4.0,4.0,80,0.00,,CLR,0.00,VWS V14.01,2013-02-21 11:57:00,
2013-02-21 04:02:00,44.4,38.7,29.50,SSW,202,4.0,4.0,80,0.00,,CLR,0.00,VWS V14.01,2013-02-21 12:02:00,
2013-02-21 04:07:00,44.4,38.7,29.50,SSW,202,4.0,4.0,80,0.00,,CLR,0.00,VWS V14.01,2013-02-21 12:07:00,
2013-02-21 04:12:00,44.4,38.7,29.50,SSW,202,4.0,4.0,80,0.00,,CLR,0.00,VWS V14.01,2013-02-21 12:12:00,
2013-02-21 04:17:00,44.2,38.2,29.50,SSW,202,4.0,4.0,79,0.00,,CLR,0.00,VWS V14.01,2013-02-21 12:17:00,
2013-02-21 04:22:00,44.1,38.3,29.50,SSW,202,4.0,4.0,80,0.00,,CLR,0.00,VWS V14.01,2013-02-21 12:22:00,
2013-02-21 04:27:00,44.1,38.3,29.50,SSW,202,4.0,4.0,80,0.00,,CLR,0.00,VWS V14.01,2013-02-21 12:27:00,
2013-02-21 04:32:00,44.1,38.3,29.47,SSW,202,4.0,4.0,80,0.00,,CLR,0.00,VWS V14.01,2013-02-21 12:32:00,
2013-02-21 04:37:00,43.9,38.1,29.47,SSW,202,4.0,4.0,80,0.00,,CLR,0.00,VWS V14.01,2013-02-21 12:37:00,
2013-02-21 04:42:00,43.7,38.0,29.47,SSW,202,4.0,4.0,80,0.00,,CLR,0.00,VWS V14.01,2013-02-21 12:42:00,
2013-02-21 04:47:00,43.5,37.8,29.50,SSW,202,4.0,4.0,80,0.00,,CLR,0.00,VWS V14.01,2013-02-21 12:47:00,
2013-02-21 04:52:00,43.3,37.9,29.50,SSW,202,4.0,4.0,81,0.00,,CLR,0.00,VWS V14.01,2013-02-21 12:52:00,
2013-02-21 04:57:00,43.0,37.6,29.50,SSW,202,4.0,4.0,81,0.00,,CLR,0.00,VWS V14.01,2013-02-21 12:57:00,
2013-02-21 05:02:00,43.0,37.9,29.50,SSW,202,4.0,4.0,82,0.00,,SCT030,0.00,VWS V14.01,2013-02-21 13:02:00,
2013-02-21 05:07:00,43.2,38.0,29.50,SSW,202,4.0,4.0,82,0.00,,SCT030,0.00,VWS V14.01,2013-02-21 13:07:00,
2013-02-21 05:12:00,43.3,38.2,29.50,SSW,202,4.0,4.0,82,0.00,,SCT030,0.00,VWS V14.01,2013-02-21 13:12:00,
2013-02-21 05:17:00,43.5,38.7,29.53,SSW,202,4.0,4.0,83,0.00,,BKN028,0.00,VWS V14.01,2013-02-21 13:17:00,
2013-02-21 05:22:00,43.5,38.7,29.53,SSW,202,4.0,4.0,83,0.00,,BKN028,0.00,VWS V14.01,2013-02-21 13:22:00,
2013-02-21 05:27:00,43.5,38.7,29.53,SSW,202,4.0,4.0,83,0.00,,BKN028,0.00,VWS V14.01,2013-02-21 13:27:00,
2013-02-21 05:32:00,43.5,38.7,29.53,SSW,202,4.0,4.0,83,0.00,,OVC030,0.00,VWS V14.01,2013-02-21 13:32:00,
2013-02-21 05:37:00,43.5,38.7,29.53,SSW,202,4.0,4.0,83,0.00,,OVC030,0.00,VWS V14.01,2013-02-21 13:37:00,
2013-02-21 05:42:00,43.3,38.5,29.53,SSW,202,4.0,4.0,83,0.00,,OVC030,0.00,VWS V14.01,2013-02-21 13:42:00,
2013-02-21 05:47:00,43.2,38.4,29.50,SSW,202,4.0,4.0,83,0.00,,OVC030,0.00,VWS V14.01,2013-02-21 13:47:00,
2013-02-21 05:52:00,42.8,37.7,29.50,SSW,202,4.0,4.0,82,0.00,,OVC030,0.00,VWS V14.01,2013-02-21 13:52:00,
2013-02-21 05:57:00,42.8,38.0,29.50,SSW,202,4.0,4.0,83,0.00,,OVC030,0.00,VWS V14.01,2013-02-21 13:57:00,
2013-02-21 06:02:00,42.8,38.0,29.47,SSW,202,4.0,4.0,83,0.00,,BKN043,0.00,VWS V14.01,2013-02-21 14:02:00,
2013-02-21 06:07:00,42.8,38.0,29.47,SSW,202,4.0,4.0,83,0.00,,BKN043,0.00,VWS V14.01,2013-02-21 14:07:00,
2013-02-21 06:12:00,42.8,38.0,29.47,SSW,202,4.0,4.0,83,0.00,,BKN043,0.00,VWS V14.01,2013-02-21 14:12:00,
2013-02-21 06:17:00,42.4,37.7,29.47,SSW,202,4.0,4.0,83,0.00,,BKN043,0.00,VWS V14.01,2013-02-21 14:17:00,
2013-02-21 06:22:00,42.4,37.7,29.47,SSW,202,4.0,4.0,83,0.00,,BKN043,0.00,VWS V14.01,2013-02-21 14:22:00,
2013-02-21 06:27:00,42.4,37.7,29.47,SSW,202,4.0,4.0,83,0.00,,BKN043,0.00,VWS V14.01,2013-02-21 14:27:00,
2013-02-21 06:32:00,42.6,38.1,29.47,SSW,202,4.0,4.0,84,0.00,,BKN043,0.00,VWS V14.01,2013-02-21 14:32:00,
2013-02-21 06:37:00,43.0,38.5,29.47,SSW,202,4.0,4.0,84,0.00,,BKN043,0.00,VWS V14.01,2013-02-21 14:37:00,
2013-02-21 06:42:00,43.0,38.5,29.47,SSW,202,4.0,4.0,84,0.00,,BKN043,0.00,VWS V14.01,2013-02-21 14:42:00,
2013-02-21 06:47:00,43.2,38.7,29.50,SSW,202,4.0,4.0,84,0.00,,BKN043,0.00,VWS V14.01,2013-02-21 14:47:00,
2013-02-21 06:52:00,43.3,38.8,29.50,SSW,202,4.0,4.0,84,0.00,,BKN043,0.00,VWS V14.01,2013-02-21 14:52:00,
2013-02-21 06:57:00,43.3,38.8,29.50,SSW,202,4.0,4.0,84,0.00,,BKN043,0.00,VWS V14.01,2013-02-21 14:57:00,
2013-02-21 07:02:00,43.5,39.0,29.50,SSW,202,4.0,4.0,84,0.00,,BKN048,0.00,VWS V14.01,2013-02-21 15:02:00,
2013-02-21 07:07:00,43.7,39.2,29.50,SSW,202,4.0,4.0,84,0.00,,BKN048,0.00,VWS V14.01,2013-02-21 15:07:00,
2013-02-21 07:12:00,44.1,39.5,29.50,SSW,202,4.0,4.0,84,0.00,,BKN048,0.00,VWS V14.01,2013-02-21 15:12:00,
2013-02-21 07:17:00,44.4,39.9,29.53,SSW,202,4.0,4.0,84,0.00,,BKN048,0.00,VWS V14.01,2013-02-21 15:17:00,
2013-02-21 07:22:00,44.6,39.8,29.53,SSW,202,4.0,4.0,83,0.00,,BKN048,0.00,VWS V14.01,2013-02-21 15:22:00,
2013-02-21 07:27:00,45.0,40.1,29.53,SSW,202,4.0,4.0,83,0.00,,BKN048,0.00,VWS V14.01,2013-02-21 15:27:00,
2013-02-21 07:32:00,45.3,40.5,29.53,SSW,202,4.0,4.0,83,0.00,,BKN048,0.00,VWS V14.01,2013-02-21 15:32:00,
2013-02-21 07:37:00,45.9,40.7,29.53,SSW,202,4.0,4.0,82,0.00,,BKN048,0.00,VWS V14.01,2013-02-21 15:37:00,
2013-02-21 07:42:00,46.2,41.0,29.53,SSW,202,4.0,4.0,82,0.00,,BKN048,0.00,VWS V14.01,2013-02-21 15:42:00,
2013-02-21 07:48:00,46.4,40.9,29.53,SSW,202,4.0,4.0,81,0.00,,BKN048,0.00,VWS V14.01,2013-02-21 15:48:00,
2013-02-21 07:53:00,46.6,40.8,29.53,SSW,202,4.0,4.0,80,0.00,,BKN048,0.00,VWS V14.01,2013-02-21 15:53:00,
2013-02-21 07:58:00,46.8,40.6,29.53,SSW,202,4.0,4.0,79,0.00,,BKN048,0.00,VWS V14.01,2013-02-21 15:58:00,
2013-02-21 08:03:00,46.8,40.6,29.53,SSW,202,4.0,4.0,79,0.00,,SCT048,0.00,VWS V14.01,2013-02-21 16:03:00,
2013-02-21 08:08:00,46.9,40.5,29.53,SSW,202,4.0,4.0,78,0.00,,SCT048,0.00,VWS V14.01,2013-02-21 16:08:00,
2013-02-21 08:13:00,48.2,42.0,29.53,SSW,202,4.0,4.0,79,0.00,,SCT048,0.00,VWS V14.01,2013-02-21 16:13:00,
2013-02-21 08:18:00,50.0,44.1,29.53,SSW,202,4.0,4.0,80,0.00,,SCT048,0.00,VWS V14.01,2013-02-21 16:18:00,
2013-02-21 08:23:00,51.6,45.0,29.53,SSW,202,4.0,4.0,78,0.00,,SCT048,0.00,VWS V14.01,2013-02-21 16:23:00,
2013-02-21 08:28:00,53.1,45.0,29.53,SSW,202,4.0,4.0,74,0.00,,SCT048,0.00,VWS V14.01,2013-02-21 16:28:00,
2013-02-21 08:33:00,53.8,45.0,29.56,SSW,202,4.0,4.0,72,0.00,,SCT048,0.00,VWS V14.01,2013-02-21 16:33:00,
2013-02-21 08:38:00,54.5,44.9,29.56,SSW,202,4.0,4.0,70,0.00,,SCT048,0.00,VWS V14.01,2013-02-21 16:38:00,
2013-02-21 08:43:00,55.2,43.7,29.56,SSW,202,4.0,4.0,65,0.00,,SCT048,0.00,VWS V14.01,2013-02-21 16:43:00,
2013-02-21 08:48:00,54.5,42.6,29.56,SSW,202,4.0,4.0,64,0.00,,SCT048,0.00,VWS V14.01,2013-02-21 16:48:00,
2013-02-21 08:53:00,54.9,42.5,29.56,SSW,202,4.0,4.0,63,0.00,,SCT048,0.00,VWS V14.01,2013-02-21 16:53:00,
2013-02-21 08:58:00,55.0,42.3,29.56,SSW,202,4.0,4.0,62,0.00,,SCT048,0.00,VWS V14.01,2013-02-21 16:58:00,
2013-02-21 09:03:00,55.8,42.5,29.53,SSW,202,4.0,4.0,61,0.00,,SCT048,0.00,VWS V14.01,2013-02-21 17:03:00,
2013-02-21 09:08:00,55.0,42.3,29.53,SSW,202,4.0,4.0,62,0.00,,SCT048,0.00,VWS V14.01,2013-02-21 17:08:00,
2013-02-21 09:13:00,55.6,42.4,29.53,SSW,202,4.0,4.0,61,0.00,,SCT048,0.00,VWS V14.01,2013-02-21 17:13:00,
2013-02-21 09:18:00,56.7,43.0,29.53,SSW,202,4.0,4.0,60,0.00,,SCT048,0.00,VWS V14.01,2013-02-21 17:18:00,
2013-02-21 09:23:00,56.3,42.2,29.53,SSW,202,4.0,4.0,59,0.00,,SCT048,0.00,VWS V14.01,2013-02-21 17:23:00,
2013-02-21 09:28:00,58.5,44.2,29.53,SSW,202,4.0,4.0,59,0.00,,SCT048,0.00,VWS V14.01,2013-02-21 17:28:00,
2013-02-21 09:33:00,58.3,43.1,29.53,SSW,202,4.0,4.0,57,0.00,,SCT048,0.00,VWS V14.01,2013-02-21 17:33:00,
2013-02-21 09:38:00,58.5,43.3,29.53,SSW,202,4.0,4.0,57,0.00,,SCT048,0.00,VWS V14.01,2013-02-21 17:38:00,
2013-02-21 09:43:00,59.5,42.9,29.53,SSW,202,4.0,4.0,54,0.00,,SCT048,0.00,VWS V14.01,2013-02-21 17:43:00,
2013-02-21 09:48:00,59.9,43.2,29.53,SSW,202,4.0,4.0,54,0.00,,SCT048,0.00,VWS V14.01,2013-02-21 17:48:00,
2013-02-21 09:53:00,58.6,41.6,29.53,SSW,202,4.0,4.0,53,0.00,,SCT048,0.00,VWS V14.01,2013-02-21 17:53:00,
2013-02-21 09:58:00,57.9,40.9,29.53,SSW,202,4.0,4.0,53,0.00,,SCT048,0.00,VWS V14.01,2013-02-21 17:58:00,
2013-02-21 10:03:00,57.7,41.7,29.56,SSW,202,4.0,4.0,55,0.00,,BKN048,0.00,VWS V14.01,2013-02-21 18:03:00,
2013-02-21 10:08:00,57.6,41.5,29.56,SSW,202,4.0,4.0,55,0.00,,BKN048,0.00,VWS V14.01,2013-02-21 18:08:00,
2013-02-21 10:13:00,57.6,41.5,29.56,SSW,202,4.0,4.0,55,0.00,,BKN048,0.00,VWS V14.01,2013-02-21 18:13:00,
2013-02-21 10:18:00,57.7,42.2,29.56,SSW,202,4.0,4.0,56,0.00,,BKN048,0.00,VWS V14.01,2013-02-21 18:18:00,
2013-02-21 10:23:00,57.6,42.0,29.56,SSW,202,4.0,4.0,56,0.00,,BKN048,0.00,VWS V14.01,2013-02-21 18:23:00,
2013-02-21 10:28:00,57.4,41.8,29.56,SSW,202,4.0,4.0,56,0.00,,BKN048,0.00,VWS V14.01,2013-02-21 18:28:00,
2013-02-21 10:33:00,57.9,42.3,29.56,SSW,202,4.0,4.0,56,0.00,,BKN048,0.00,VWS V14.01,2013-02-21 18:33:00,
2013-02-21 10:38:00,57.9,42.8,29.56,SSW,202,4.0,4.0,57,0.00,,BKN048,0.00,VWS V14.01,2013-02-21 18:38:00,
2013-02-21 10:43:00,58.6,43.5,29.56,SSW,202,4.0,4.0,57,0.00,,BKN048,0.00,VWS V14.01,2013-02-21 18:43:00,
2013-02-21 10:48:00,59.5,43.4,29.56,SSW,202,4.0,4.0,55,0.00,,BKN048,0.00,VWS V14.01,2013-02-21 18:48:00,
2013-02-21 10:53:00,61.9,44.6,29.56,SSW,202,4.0,4.0,53,0.00,,BKN048,0.00,VWS V14.01,2013-02-21 18:53:00,
2013-02-21 10:58:00,63.9,45.4,29.56,SSW,202,4.0,4.0,51,0.00,,BKN048,0.00,VWS V14.01,2013-02-21 18:58:00,
2013-02-21 11:03:00,63.9,43.8,29.53,SSW,202,4.0,4.0,48,0.00,,BKN055,0.00,VWS V14.01,2013-02-21 19:03:00,
2013-02-21 11:08:00,63.5,42.4,29.53,SSW,202,4.0,4.0,46,0.00,,BKN055,0.00,VWS V14.01,2013-02-21 19:08:00,
2013-02-21 11:13:00,64.8,43.0,29.53,SSW,202,4.0,4.0,45,0.00,,BKN055,0.00,VWS V14.01,2013-02-21 19:13:00,
2013-02-21 11:18:00,64.6,43.4,29.53,SSW,202,4.0,4.0,46,0.00,,BKN055,0.00,VWS V14.01,2013-02-21 19:18:00,
2013-02-21 11:23:00,65.5,42.4,29.53,SSW,202,4.0,4.0,43,0.00,,BKN055,0.00,VWS V14.01,2013-02-21 19:23:00,
2013-02-21 11:28:00,63.1,39.7,29.53,SSW,202,4.0,4.0,42,0.00,,BKN055,0.00,VWS V14.01,2013-02-21 19:28:00,
2013-02-21 11:33:00,63.3,40.5,29.50,SSW,202,4.0,4.0,43,0.00,,BKN055,0.00,VWS V14.01,2013-02-21 19:33:00,
2013-02-21 11:38:00,64.4,41.4,29.50,SSW,202,4.0,4.0,43,0.00,,BKN055,0.00,VWS V14.01,2013-02-21 19:38:00,
2013-02-21 11:43:00,65.1,40.2,29.50,SSW,202,4.0,4.0,40,0.00,,BKN055,0.00,VWS V14.01,2013-02-21 19:43:00,
2013-02-21 11:48:00,65.7,40.0,29.50,SSW,202,4.0,4.0,39,0.00,,BKN055,0.00,VWS V14.01,2013-02-21 19:48:00,
2013-02-21 11:53:00,65.1,40.9,29.50,SSW,202,4.0,4.0,41,0.00,,BKN055,0.00,VWS V14.01,2013-02-21 19:53:00,
2013-02-21 11:58:00,63.9,40.3,29.50,SSW,202,4.0,4.0,42,0.00,,BKN055,0.00,VWS V14.01,2013-02-21 19:58:00,
2013-02-21 12:03:00,65.1,42.7,29.50,SSW,202,4.0,4.0,44,0.00,,SCT120,0.00,VWS V14.01,2013-02-21 20:03:00,
2013-02-21 12:08:00,64.4,41.4,29.50,SSW,202,4.0,4.0,43,0.00,,SCT120,0.00,VWS V14.01,2013-02-21 20:08:00,
2013-02-21 12:13:00,64.6,42.8,29.50,SSW,202,4.0,4.0,45,0.00,,SCT120,0.00,VWS V14.01,2013-02-21 20:13:00,
2013-02-21 12:18:00,64.6,42.8,29.47,SSW,202,4.0,4.0,45,0.00,,SCT120,0.00,VWS V14.01,2013-02-21 20:18:00,
2013-02-21 12:23:00,65.1,42.7,29.47,SSW,202,4.0,4.0,44,0.00,,SCT120,0.00,VWS V14.01,2013-02-21 20:23:00,
2013-02-21 12:28:00,64.4,41.4,29.47,SSW,202,4.0,4.0,43,0.00,,SCT120,0.00,VWS V14.01,2013-02-21 20:28:00,
2013-02-21 12:33:00,65.7,42.6,29.50,SSW,202,4.0,4.0,43,0.00,,SCT120,0.00,VWS V14.01,2013-02-21 20:33:00,
2013-02-21 12:38:00,65.7,42.0,29.50,SSW,202,4.0,4.0,42,0.00,,SCT120,0.00,VWS V14.01,2013-02-21 20:38:00,
2013-02-21 12:43:00,63.5,40.0,29.50,SSW,202,4.0,4.0,42,0.00,,SCT120,0.00,VWS V14.01,2013-02-21 20:43:00,
2013-02-21 12:48:00,63.1,40.3,29.47,SSW,202,4.0,4.0,43,0.00,,SCT120,0.00,VWS V14.01,2013-02-21 20:48:00,
2013-02-21 12:53:00,63.5,40.6,29.47,SSW,202,4.0,4.0,43,0.00,,SCT120,0.00,VWS V14.01,2013-02-21 20:53:00,
2013-02-21 12:58:00,61.7,39.6,29.47,SSW,202,4.0,4.0,44,0.00,,SCT120,0.00,VWS V14.01,2013-02-21 20:58:00,
2013-02-21 13:03:00,60.1,38.7,29.47,SSW,202,4.0,4.0,45,0.00,,SCT055,0.00,VWS V14.01,2013-02-21 21:03:00,
2013-02-21 13:09:00,58.3,38.2,29.47,SSW,202,4.0,4.0,47,0.00,,SCT055,0.00,VWS V14.01,2013-02-21 21:09:00,
2013-02-21 13:14:00,57.7,38.2,29.47,SSW,202,4.0,4.0,48,0.00,,SCT055,0.00,VWS V14.01,2013-02-21 21:14:00,
2013-02-21 13:19:00,57.7,38.2,29.47,SSW,202,4.0,4.0,48,0.00,,SCT055,0.00,VWS V14.01,2013-02-21 21:19:00,
2013-02-21 13:24:00,57.7,38.7,29.47,SSW,202,4.0,4.0,49,0.00,,SCT055,0.00,VWS V14.01,2013-02-21 21:24:00,
2013-02-21 13:29:00,59.7,40.0,29.47,SSW,202,4.0,4.0,48,0.00,,SCT055,0.00,VWS V14.01,2013-02-21 21:29:00,
2013-02-21 13:34:00,61.2,40.2,29.47,SSW,202,4.0,4.0,46,0.00,,SCT055,0.00,VWS V14.01,2013-02-21 21:34:00,
2013-02-21 13:39:00,62.6,40.4,29.47,SSW,202,4.0,4.0,44,0.00,,SCT055,0.00,VWS V14.01,2013-02-21 21:39:00,
2013-02-21 13:44:00,63.3,41.1,29.47,SSW,202,4.0,4.0,44,0.00,,SCT055,0.00,VWS V14.01,2013-02-21 21:44:00,
2013-02-21 13:49:00,62.6,40.4,29.47,SSW,202,4.0,4.0,44,0.00,,SCT055,0.00,VWS V14.01,2013-02-21 21:49:00,
2013-02-21 13:54:00,59.9,38.5,29.47,SSW,202,4.0,4.0,45,0.00,,SCT055,0.00,VWS V14.01,2013-02-21 21:54:00,
2013-02-21 13:59:00,58.5,37.8,29.47,SSW,202,4.0,4.0,46,0.00,,SCT055,0.00,VWS V14.01,2013-02-21 21:59:00,
2013-02-21 14:04:00,57.4,37.9,29.47,SSW,202,4.0,4.0,48,0.00,,SCT075,0.00,VWS V14.01,2013-02-21 22:04:00,
2013-02-21 14:09:00,56.8,37.9,29.47,SSW,202,4.0,4.0,49,0.00,,SCT075,0.00,VWS V14.01,2013-02-21 22:09:00,
2013-02-21 14:14:00,56.7,38.8,29.47,SSW,202,4.0,4.0,51,0.00,,SCT075,0.00,VWS V14.01,2013-02-21 22:14:00,
2013-02-21 14:19:00,56.7,38.8,29.50,SSW,202,4.0,4.0,51,0.00,,SCT075,0.00,VWS V14.01,2013-02-21 22:19:00,
2013-02-21 14:24:00,56.5,39.6,29.50,SSW,202,4.0,4.0,53,0.00,,SCT075,0.00,VWS V14.01,2013-02-21 22:24:00,
2013-02-21 14:29:00,56.1,40.7,29.50,SSW,202,4.0,4.0,56,0.00,,SCT075,0.00,VWS V14.01,2013-02-21 22:29:00,
2013-02-21 14:34:00,55.4,40.9,29.47,SSW,202,4.0,4.0,58,0.00,,SCT075,0.00,VWS V14.01,2013-02-21 22:34:00,
2013-02-21 14:39:00,54.9,41.7,29.47,SSW,202,4.0,4.0,61,0.00,,SCT075,0.00,VWS V14.01,2013-02-21 22:39:00,
2013-02-21 14:44:00,54.7,42.8,29.47,SSW,202,4.0,4.0,64,0.00,,SCT075,0.00,VWS V14.01,2013-02-21 22:44:00,
2013-02-21 14:49:00,54.7,43.6,29.47,SSW,202,4.0,4.0,66,0.00,,SCT075,0.00,VWS V14.01,2013-02-21 22:49:00,
2013-02-21 14:54:00,55.4,43.4,29.47,SSW,202,4.0,4.0,64,0.00,,SCT075,0.00,VWS V14.01,2013-02-21 22:54:00,
2013-02-21 14:59:00,56.1,44.5,29.47,SSW,202,4.0,4.0,65,0.00,,SCT075,0.00,VWS V14.01,2013-02-21 22:59:00,
2013-02-21 15:04:00,57.9,45.8,29.50,SSW,202,4.0,4.0,64,0.00,,SCT060,0.00,VWS V14.01,2013-02-21 23:04:00,
2013-02-21 15:09:00,59.4,45.5,29.50,SSW,202,4.0,4.0,60,0.00,,SCT060,0.00,VWS V14.01,2013-02-21 23:09:00,
2013-02-21 15:14:00,59.9,44.7,29.50,SSW,202,4.0,4.0,57,0.00,,SCT060,0.00,VWS V14.01,2013-02-21 23:14:00,
2013-02-21 15:19:00,60.4,43.2,29.47,SSW,202,4.0,4.0,53,0.00,,SCT060,0.00,VWS V14.01,2013-02-21 23:19:00,
2013-02-21 15:24:00,60.8,42.6,29.47,SSW,202,4.0,4.0,51,0.00,,SCT060,0.00,VWS V14.01,2013-02-21 23:24:00,
2013-02-21 15:29:00,60.6,42.4,29.47,SSW,202,4.0,4.0,51,0.00,,SCT060,0.00,VWS V14.01,2013-02-21 23:29:00,
2013-02-21 15:34:00,59.4,40.2,29.47,SSW,202,4.0,4.0,49,0.00,,SCT060,0.00,VWS V14.01,2013-02-21 23:34:00,
2013-02-21 15:39:00,57.6,40.1,29.47,SSW,202,4.0,4.0,52,0.00,,SCT060,0.00,VWS V14.01,2013-02-21 23:39:00,
2013-02-21 15:44:00,56.7,39.7,29.47,SSW,202,4.0,4.0,53,0.00,,SCT060,0.00,VWS V14.01,2013-02-21 23:44:00,
2013-02-21 15:49:00,58.1,41.6,29.50,SSW,202,4.0,4.0,54,0.00,,SCT060,0.00,VWS V14.01,2013-02-21 23:49:00,
2013-02-21 15:54:00,59.0,40.9,29.50,SSW,202,4.0,4.0,51,0.00,,SCT060,0.00,VWS V14.01,2013-02-21 23:54:00,
2013-02-21 15:59:00,59.0,39.9,29.47,SSW,202,4.0,4.0,49,0.00,,SCT060,0.00,VWS V14.01,2013-02-21 23:59:00,
2013-02-21 16:04:00,59.2,39.5,29.47,SSW,202,4.0,4.0,48,0.00,,BKN075,0.00,VWS V14.01,2013-02-22 00:04:00,
2013-02-21 16:09:00,59.4,40.2,29.47,SSW,202,4.0,4.0,49,0.00,,BKN075,0.00,VWS V14.01,2013-02-22 00:09:00,
2013-02-21 16:14:00,59.7,40.0,29.47,SSW,202,4.0,4.0,48,0.00,,BKN075,0.00,VWS V14.01,2013-02-22 00:14:00,
2013-02-21 16:19:00,59.4,38.6,29.47,SSW,202,4.0,4.0,46,0.00,,BKN075,0.00,VWS V14.01,2013-02-22 00:19:00,
2013-02-21 16:24:00,59.5,39.3,29.47,SSW,202,4.0,4.0,47,0.00,,BKN075,0.00,VWS V14.01,2013-02-22 00:24:00,
2013-02-21 16:29:00,59.4,38.0,29.47,SSW,202,4.0,4.0,45,0.00,,BKN075,0.00,VWS V14.01,2013-02-22 00:29:00,
2013-02-21 16:34:00,59.0,37.1,29.47,SSW,202,4.0,4.0,44,0.00,,BKN075,0.00,VWS V14.01,2013-02-22 00:34:00,
2013-02-21 16:39:00,59.2,37.9,29.47,SSW,202,4.0,4.0,45,0.00,,BKN075,0.00,VWS V14.01,2013-02-22 00:39:00,
2013-02-21 16:44:00,59.0,37.7,29.47,SSW,202,4.0,4.0,45,0.00,,BKN075,0.00,VWS V14.01,2013-02-22 00:44:00,
2013-02-21 16:49:00,58.6,38.5,29.47,SSW,202,4.0,4.0,47,0.00,,BKN075,0.00,VWS V14.01,2013-02-22 00:49:00,
2013-02-21 16:54:00,57.6,38.0,29.47,SSW,202,4.0,4.0,48,0.00,,BKN075,0.00,VWS V14.01,2013-02-22 00:54:00,
2013-02-21 16:59:00,56.7,37.7,29.47,SSW,202,4.0,4.0,49,0.00,,BKN075,0.00,VWS V14.01,2013-02-22 00:59:00,
2013-02-21 17:04:00,55.8,37.4,29.47,SSW,202,4.0,4.0,50,0.00,,FEW025,0.00,VWS V14.01,2013-02-22 01:04:00,
2013-02-21 17:09:00,55.2,37.9,29.47,SSW,202,4.0,4.0,52,0.00,,FEW025,0.00,VWS V14.01,2013-02-22 01:09:00,
2013-02-21 17:14:00,54.5,37.7,29.47,SSW,202,4.0,4.0,53,0.00,,FEW025,0.00,VWS V14.01,2013-02-22 01:14:00,
2013-02-21 17:19:00,54.0,37.7,29.47,SSW,202,4.0,4.0,54,0.00,,FEW025,0.00,VWS V14.01,2013-02-22 01:19:00,
2013-02-21 17:24:00,53.4,37.7,29.47,SSW,202,4.0,4.0,55,0.00,,FEW025,0.00,VWS V14.01,2013-02-22 01:24:00,
2013-02-21 17:29:00,52.7,37.9,29.50,SSW,202,4.0,4.0,57,0.00,,FEW025,0.00,VWS V14.01,2013-02-22 01:29:00,
2013-02-21 17:34:00,52.3,38.0,29.50,SSW,202,4.0,4.0,58,0.00,,FEW025,0.00,VWS V14.01,2013-02-22 01:34:00,
2013-02-21 17:39:00,51.8,37.9,29.50,SSW,202,4.0,4.0,59,0.00,,FEW025,0.00,VWS V14.01,2013-02-22 01:39:00,
2013-02-21 17:45:00,51.4,38.5,29.50,SSW,202,4.0,4.0,61,0.00,,FEW025,0.00,VWS V14.01,2013-02-22 01:45:00,
2013-02-21 17:49:00,51.3,39.1,29.50,SSW,202,4.0,4.0,63,0.00,,FEW025,0.00,VWS V14.01,2013-02-22 01:49:00,
2013-02-21 17:54:00,50.9,38.8,29.50,SSW,202,4.0,4.0,63,0.00,,FEW025,0.00,VWS V14.01,2013-02-22 01:54:00,
2013-02-21 17:59:00,50.2,38.9,29.50,SSW,202,4.0,4.0,65,0.00,,FEW025,0.00,VWS V14.01,2013-02-22 01:59:00,
2013-02-21 18:04:00,49.6,38.4,29.50,SSW,202,4.0,4.0,65,0.00,,FEW025,0.00,VWS V14.01,2013-02-22 02:04:00,
2013-02-21 18:09:00,49.6,38.4,29.50,SSW,202,4.0,4.0,65,0.00,,FEW025,0.00,VWS V14.01,2013-02-22 02:09:00,
2013-02-21 18:14:00,49.5,39.0,29.50,SSW,202,4.0,4.0,67,0.00,,FEW025,0.00,VWS V14.01,2013-02-22 02:14:00,
2013-02-21 18:19:00,49.1,39.4,29.50,SSW,202,4.0,4.0,69,0.00,,FEW025,0.00,VWS V14.01,2013-02-22 02:19:00,
2013-02-21 18:24:00,48.9,39.6,29.50,SSW,202,4.0,4.0,70,0.00,,FEW025,0.00,VWS V14.01,2013-02-22 02:24:00,
2013-02-21 18:30:00,48.7,39.4,29.53,SSW,202,4.0,4.0,70,0.00,,FEW025,0.00,VWS V14.01,2013-02-22 02:30:00,
2013-02-21 18:35:00,48.6,39.2,29.53,SSW,202,4.0,4.0,70,0.00,,FEW025,0.00,VWS V14.01,2013-02-22 02:35:00,
2013-02-21 18:40:00,48.4,39.4,29.53,SSW,202,4.0,4.0,71,0.00,,FEW025,0.00,VWS V14.01,2013-02-22 02:40:00,
2013-02-21 18:45:00,48.2,39.6,29.53,SSW,202,4.0,4.0,72,0.00,,FEW025,0.00,VWS V14.01,2013-02-22 02:45:00,
2013-02-21 18:50:00,48.0,39.8,29.53,SSW,202,4.0,4.0,73,0.00,,FEW025,0.00,VWS V14.01,2013-02-22 02:50:00,
2013-02-21 18:55:00,47.8,39.6,29.53,SSW,202,4.0,4.0,73,0.00,,FEW025,0.00,VWS V14.01,2013-02-22 02:55:00,
2013-02-21 19:00:00,47.7,39.8,29.53,SSW,202,4.0,4.0,74,0.00,,FEW025,0.00,VWS V14.01,2013-02-22 03:00:00,
2013-02-21 19:05:00,47.3,39.8,29.53,SSW,202,4.0,4.0,75,0.00,,CLR,0.00,VWS V14.01,2013-02-22 03:05:00,
2013-02-21 19:10:00,47.3,39.8,29.53,SSW,202,4.0,4.0,75,0.00,,CLR,0.00,VWS V14.01,2013-02-22 03:10:00,
2013-02-21 19:15:00,46.9,39.4,29.53,SSW,202,4.0,4.0,75,0.00,,CLR,0.00,VWS V14.01,2013-02-22 03:15:00,
2013-02-21 19:20:00,46.9,39.4,29.53,SSW,202,4.0,4.0,75,0.00,,CLR,0.00,VWS V14.01,2013-02-22 03:20:00,
2013-02-21 19:25:00,46.9,39.8,29.53,SSW,202,4.0,4.0,76,0.00,,CLR,0.00,VWS V14.01,2013-02-22 03:25:00,
2013-02-21 19:30:00,46.9,40.1,29.56,SSW,202,4.0,4.0,77,0.00,,CLR,0.00,VWS V14.01,2013-02-22 03:30:00,
2013-02-21 19:35:00,46.8,39.9,29.56,SSW,202,4.0,4.0,77,0.00,,CLR,0.00,VWS V14.01,2013-02-22 03:35:00,
2013-02-21 19:40:00,46.6,39.8,29.56,SSW,202,4.0,4.0,77,0.00,,CLR,0.00,VWS V14.01,2013-02-22 03:40:00,
2013-02-21 19:45:00,46.6,39.8,29.56,SSW,202,4.0,4.0,77,0.00,,CLR,0.00,VWS V14.01,2013-02-22 03:45:00,
2013-02-21 19:50:00,46.8,40.3,29.56,SSW,202,4.0,4.0,78,0.00,,CLR,0.00,VWS V14.01,2013-02-22 03:50:00,
2013-02-21 19:55:00,47.1,41.0,29.56,SSW,202,4.0,4.0,79,0.00,,CLR,0.00,VWS V14.01,2013-02-22 03:55:00,
2013-02-21 20:00:00,47.3,41.5,29.56,SSW,202,4.0,4.0,80,0.00,,CLR,0.00,VWS V14.01,2013-02-22 04:00:00,
2013-02-21 20:05:00,47.3,41.8,29.56,SSW,202,4.0,4.0,81,0.00,,FEW020,0.00,VWS V14.01,2013-02-22 04:05:00,
2013-02-21 20:10:00,47.3,41.8,29.56,SSW,202,4.0,4.0,81,0.00,,FEW020,0.00,VWS V14.01,2013-02-22 04:10:00,
2013-02-21 20:15:00,47.1,41.6,29.56,SSW,202,4.0,4.0,81,0.00,,FEW020,0.00,VWS V14.01,2013-02-22 04:15:00,
2013-02-21 20:20:00,46.9,41.4,29.56,SSW,202,4.0,4.0,81,0.00,,FEW020,0.00,VWS V14.01,2013-02-22 04:20:00,
2013-02-21 20:25:00,47.1,42.2,29.56,SSW,202,4.0,4.0,83,0.00,,FEW020,0.00,VWS V14.01,2013-02-22 04:25:00,
2013-02-21 20:30:00,46.9,41.7,29.56,SSW,202,4.0,4.0,82,0.00,,FEW020,0.00,VWS V14.01,2013-02-22 04:30:00,
2013-02-21 20:35:00,46.6,41.4,29.56,SSW,202,4.0,4.0,82,0.00,,FEW020,0.00,VWS V14.01,2013-02-22 04:35:00,
2013-02-21 20:40:00,46.4,41.2,29.56,SSW,202,4.0,4.0,82,0.00,,FEW020,0.00,VWS V14.01,2013-02-22 04:40:00,
2013-02-21 20:45:00,46.2,41.0,29.56,SSW,202,4.0,4.0,82,0.00,,FEW020,0.00,VWS V14.01,2013-02-22 04:45:00,
2013-02-21 20:50:00,46.0,40.9,29.56,SSW,202,4.0,4.0,82,0.00,,FEW020,0.00,VWS V14.01,2013-02-22 04:50:00,
2013-02-21 20:55:00,45.9,40.7,29.56,SSW,202,4.0,4.0,82,0.00,,FEW020,0.00,VWS V14.01,2013-02-22 04:55:00,
2013-02-21 21:00:00,45.9,41.3,29.59,SSW,202,4.0,4.0,84,0.00,,FEW020,0.00,VWS V14.01,2013-02-22 05:00:00,
2013-02-21 21:05:00,45.9,41.6,29.59,SSW,202,4.0,4.0,85,0.00,,CLR,0.00,VWS V14.01,2013-02-22 05:05:00,
2013-02-21 21:10:00,45.9,41.6,29.59,SSW,202,4.0,4.0,85,0.00,,CLR,0.00,VWS V14.01,2013-02-22 05:10:00,
2013-02-21 21:15:00,45.5,41.3,29.59,SSW,202,4.0,4.0,85,0.00,,CLR,0.00,VWS V14.01,2013-02-22 05:15:00,
2013-02-21 21:20:00,45.3,41.1,29.59,SSW,202,4.0,4.0,85,0.00,,CLR,0.00,VWS V14.01,2013-02-22 05:20:00,
2013-02-21 21:25:00,45.1,40.9,29.59,SSW,202,4.0,4.0,85,0.00,,CLR,0.00,VWS V14.01,2013-02-22 05:25:00,
2013-02-21 21:30:00,44.8,40.9,29.59,SSW,202,4.0,4.0,86,0.00,,CLR,0.00,VWS V14.01,2013-02-22 05:30:00,
2013-02-21 21:35:00,44.6,40.7,29.59,SSW,202,4.0,4.0,86,0.00,,CLR,0.00,VWS V14.01,2013-02-22 05:35:00,
2013-02-21 21:40:00,44.2,40.3,29.59,SSW,202,4.0,4.0,86,0.00,,CLR,0.00,VWS V14.01,2013-02-22 05:40:00,
2013-02-21 21:45:00,44.4,40.5,29.59,SSW,202,4.0,4.0,86,0.00,,CLR,0.00,VWS V14.01,2013-02-22 05:45:00,
2013-02-21 21:50:00,44.4,40.8,29.59,SSW,202,4.0,4.0,87,0.00,,CLR,0.00,VWS V14.01,2013-02-22 05:50:00,
2013-02-21 21:55:00,44.4,40.8,29.59,SSW,202,4.0,4.0,87,0.00,,CLR,0.00,VWS V14.01,2013-02-22 05:55:00,
2013-02-21 22:00:00,44.2,40.6,29.56,SSW,202,4.0,4.0,87,0.00,,CLR,0.00,VWS V14.01,2013-02-22 06:00:00,
2013-02-21 22:05:00,44.1,40.5,29.56,SSW,202,4.0,4.0,87,0.00,,CLR,0.00,VWS V14.01,2013-02-22 06:05:00,
2013-02-21 22:10:00,44.1,40.5,29.56,SSW,202,4.0,4.0,87,0.00,,CLR,0.00,VWS V14.01,2013-02-22 06:10:00,
2013-02-21 22:15:00,43.9,40.3,29.56,SSW,202,4.0,4.0,87,0.00,,CLR,0.00,VWS V14.01,2013-02-22 06:15:00,
2013-02-21 22:20:00,43.9,40.3,29.56,SSW,202,4.0,4.0,87,0.00,,CLR,0.00,VWS V14.01,2013-02-22 06:20:00,
2013-02-21 22:25:00,44.1,40.7,29.56,SSW,202,4.0,4.0,88,0.00,,CLR,0.00,VWS V14.01,2013-02-22 06:25:00,
2013-02-21 22:30:00,43.7,40.1,29.59,SSW,202,4.0,4.0,87,0.00,,CLR,0.00,VWS V14.01,2013-02-22 06:30:00,
2013-02-21 22:35:00,43.5,39.9,29.59,SSW,202,4.0,4.0,87,0.00,,CLR,0.00,VWS V14.01,2013-02-22 06:35:00,
2013-02-21 22:40:00,43.0,39.4,29.59,SSW,202,4.0,4.0,87,0.00,,CLR,0.00,VWS V14.01,2013-02-22 06:40:00,
2013-02-21 22:45:00,42.6,39.0,29.59,SSW,202,4.0,4.0,87,0.00,,CLR,0.00,VWS V14.01,2013-02-22 06:45:00,
2013-02-21 22:51:00,42.4,38.8,29.59,SSW,202,4.0,4.0,87,0.00,,CLR,0.00,VWS V14.01,2013-02-22 06:51:00,
2013-02-21 22:56:00,42.4,39.1,29.59,SSW,202,4.0,4.0,88,0.00,,CLR,0.00,VWS V14.01,2013-02-22 06:56:00,
2013-02-21 23:01:00,42.4,39.1,29.59,SSW,202,4.0,4.0,88,0.00,,CLR,0.00,VWS V14.01,2013-02-22 07:01:00,
2013-02-21 23:06:00,42.3,39.0,29.59,SSW,202,4.0,4.0,88,0.00,,CLR,0.00,VWS V14.01,2013-02-22 07:06:00,
2013-02-21 23:11:00,42.1,38.8,29.59,SSW,202,4.0,4.0,88,0.00,,CLR,0.00,VWS V14.01,2013-02-22 07:11:00,
2013-02-21 23:16:00,42.3,39.0,29.59,SSW,202,4.0,4.0,88,0.00,,CLR,0.00,VWS V14.01,2013-02-22 07:16:00,
2013-02-21 23:21:00,42.1,39.1,29.59,SSW,202,4.0,4.0,89,0.00,,CLR,0.00,VWS V14.01,2013-02-22 07:21:00,
2013-02-21 23:26:00,41.7,39.0,29.59,SSW,202,4.0,4.0,90,0.00,,CLR,0.00,VWS V14.01,2013-02-22 07:26:00,
2013-02-21 23:31:00,41.5,38.5,29.59,SSW,202,4.0,4.0,89,0.00,,CLR,0.00,VWS V14.01,2013-02-22 07:31:00,
2013-02-21 23:36:00,41.7,39.0,29.59,SSW,202,4.0,4.0,90,0.00,,CLR,0.00,VWS V14.01,2013-02-22 07:36:00,
2013-02-21 23:41:00,41.7,39.0,29.59,SSW,202,4.0,4.0,90,0.00,,CLR,0.00,VWS V14.01,2013-02-22 07:41:00,
2013-02-21 23:46:00,41.7,39.0,29.59,SSW,202,4.0,4.0,90,0.00,,CLR,0.00,VWS V14.01,2013-02-22 07:46:00,
2013-02-21 23:51:00,41.7,39.0,29.59,SSW,202,4.0,4.0,90,0.00,,CLR,0.00,VWS V14.01,2013-02-22 07:51:00,
2013-02-21 23:56:00,41.4,38.7,29.59,SSW,202,4.0,4.0,90,0.00,,CLR,0.00,VWS V14.01,2013-02-22 07:56:00,